Home > Weather > Banjul > Past weeks

Flag for Gambia Weather for the Past 2 Weeks in Banjul, Gambia

Now
84 °F

Sunny.


Feels Like: 86 °F
Forecast: 69 / 81 °F
Wind: 12 mph from North

Location: Banjul / Yundum

Current Time: Apr 30, 2016 at 1:36:27 PM

Latest Report: Apr 30, 2016 at 1:00 PM


Visibility: 10 mi

Pressure: 29.83 "Hg

Humidity: 51%

Dew Point: 64 °F

Location of BanjulLocation

Historic Weather in Banjul — Graph

°F

Banjul Temperature Yesterday

Maximum temperature yesterday: 84 °F (at 1:00 PM)
Minimum temperature yesterday: 66 °F (at 2:00 AM)
Average temperature yesterday: 74 °F

High & Low Weather Summary for the Past Weeks

 TemperatureHumidityPressure
High108 °F (Apr 17, 4:00 PM)94% (Apr 18, 3:00 AM)30.07 "Hg (Apr 18, 3:00 AM)
Low66 °F (Apr 28, 6:00 AM)20% (Apr 15, 3:00 PM)29.71 "Hg (Apr 15, 4:00 PM)
Average78 °F68%29.82 "Hg
* Reported Apr 15 12:00 Noon — Apr 30 12:00 Noon, Banjul, Weather by CustomWeather, © 2016

Note: Actual official high and low records may vary slightly from our data, if they occured in-between our weather recording intervals... More about our weather records

Advertising

Banjul Weather History for the Previous 24 Hours

Scroll right to see more
 ConditionsComfort  
Time TempWeatherWind HumidityBarometerVisibility
12:00 PM
Sat, Apr 30
82 °FSunny.13 mph58%29.86 "Hg10 mi
11:00 AM79 °FSunny.8 mph61%29.86 "Hg10 mi
10:00 AM77 °FSunny.12 mph69%29.86 "Hg10 mi
9:00 AM75 °FSunny.12 mph65%29.83 "Hg10 mi
8:00 AM70 °FMild.No wind83%29.80 "HgN/A
7:00 AM68 °FSunny.12 mph83%29.80 "Hg10 mi
6:00 AM68 °FClear.9 mph83%29.80 "Hg10 mi
5:00 AM68 °FClear.9 mph88%29.80 "Hg10 mi
4:00 AM68 °FClear.9 mph88%29.80 "Hg10 mi
3:00 AM68 °FClear.9 mph88%29.83 "Hg10 mi
2:00 AM70 °FClear.10 mph83%29.83 "Hg10 mi
1:00 AM70 °FClear.8 mph83%29.86 "Hg10 mi
12:00 AM70 °FClear.8 mph83%29.83 "Hg10 mi
11:00 PM
Fri, Apr 29
72 °FClear.10 mph73%29.83 "Hg10 mi
10:00 PM72 °FClear.14 mph73%29.83 "Hg10 mi
9:00 PM72 °FClear.12 mph73%29.77 "Hg10 mi
8:00 PM75 °FClear.10 mph69%29.77 "Hg10 mi
7:00 PM75 °FSunny.8 mph65%29.77 "Hg10 mi
6:00 PM79 °FSunny.14 mph58%29.77 "Hg10 mi
5:00 PM81 °FSunny.16 mph58%29.77 "Hg10 mi
4:00 PM82 °FSunny.14 mph55%29.77 "Hg10 mi
3:00 PM84 °FSunny.15 mph51%29.77 "Hg10 mi
2:00 PM84 °FSunny.8 mph51%29.80 "Hg10 mi
1:00 PM84 °FSunny.14 mph43%29.80 "Hg10 mi
Weather by CustomWeather, © 2016

See weather overviewHow to use our weather pages